Weather in Christchurch

New Zealand     43°31′06″S   172°38′17″E
temp.,
°C
wind,
m/s
gust,
m/s
humid.,
%
clouds,
%
prec.,
mm/h
press.,
hPa
HPBL,
m
18 june, fri
fri1800:00+8wsw5686100 1.0 1016345
03:00+7wsw5786100 0.3 1017367
06:00+7wsw568891 0.3 1018298
09:00+7wsw458793 0.0 1020223
12:00+9sw237699 0.1 1020421
15:00+8w2284100 0.8 1020244
18:00+8w1282100 1.0 1021248
21:00+8ene127891 0.1 1021251
19 june, sat
sat1900:00+8sse227437 0.2 1021299
03:00+6wsw338568 0.0 1021107
06:00+7sw2379100 0.0 1020127
09:00+7wsw4482100 0.0 1020172
12:00+9ssw2275100 0.1 1021214
15:00+10se1278100 0.1 1019232
18:00+9wsw2284100 0.2 1020131
21:00+7sw3488100 0.0 1020146
20 june, sun
sun2000:00+6wsw448890 0.0 1019140
03:00+7sw3484100 0.0 1018152
06:00+7sw3386100 0.0 1017134
09:00+7sw348697 0.0 1018141
12:00+8sw3482100 0.0 1016218
15:00+10sw447796 0.0 1015449
18:00+8sw579029 0.0 1016286
21:00+8sw4692100 0.0 1016223
21 june, mon
mon2100:00+8sw349215 0.3 1016152
03:00+7sw349133 0.0 1016152
06:00+7sw459114 0.0 1016173
09:00+7wsw469010 0.0 1017181
12:00+10sw45726 0.0 1016764
15:00+11sw45691 0.0 1014630
18:00+8sw34840 0.0 1015147
21:00+7wsw34894 0.0 1016134
22 june, tue
tue2200:00+7wsw469064 0.0 1017236
03:00+7wsw568722 0.0 1017229
06:00+6wsw348914 0.0 1016130
09:00+6w33825 0.0 1017125
12:00+9wnw2266100 0.0 1016214
15:00+11nw33649 0.0 1014301
18:00+9wsw11715 0.0 101428
21:00+8wsw33723 0.0 101574